Find Starlink 31236

NORAD ID: 58841 Int'l Des: 2024-017 Owner: SPXS Country: US Constellation: starlink operational
LEOCIRCULAR

リアルタイム位置

3D地球を読み込み中...

Starlink 31236について

説明を読み込み中...

次回通過

Passes for default location (London). Set your location on the main map for personalized predictions.

高度履歴

Loading altitude history...

軌道要素

1 58841U 24017R 26121.91635638 -.00001160 00000-0 -27046-4 0 9996
2 58841 53.1609 317.2145 0001011 100.5881 259.5233 15.30188294128204
Epoch: May 1, 2026 • Age: 8 hours

現在のステータス

高度 478.8 km
速度 7.63 km/s
衛星直下点 -11.94°S, 0°E
打ち上げ日 Jan 24, 2024
運用期間 2.2 years
タイプ internet

技術仕様

分類 Payload
質量 730.00 kg
乾燥質量 700.00 kg
総質量 730.00 kg
長さ 0.30 m
直径 4.10 m
スパン 29.00 m
形状 Box + pan
製造者 SPXS
バスタイプ Starlink V2M
フェーズステータス In Orbit
所有者/国 SPXS/US

Most Searched